Location: *
(34.8620°S, 39.3380°E)
Time: 01:26:39
(UTC+00:00)

X-37B - Visible Passes

Search period start: 21 October 2021 00:00
Search period end: 31 October 2021 00:00
Orbit: 385 x 389 km, 45.0° (Epoch: 17 October)

Date Brightness Start Highest point End Pass type
(mag) Time Alt. Az. Time Alt. Az. Time Alt. Az.
21 Oct 1.5 01:14:49 30° WSW 01:15:48 39° SSW 01:18:53 10° SE visible
22 Oct 2.8 00:18:57 27° SE 00:18:57 27° SE 00:20:37 10° SE visible
22 Oct 2.8 01:52:03 10° WSW 01:54:25 18° SSW 01:56:46 10° SSE visible
23 Oct 2.3 00:55:20 24° SW 00:55:50 25° SSW 00:58:35 10° SE visible
23 Oct 3.6 23:59:24 17° SE 23:59:24 17° SE 00:00:24 10° SE visible
24 Oct 3.2 01:32:36 10° SW 01:34:35 15° S 01:36:33 10° SSE visible
25 Oct 2.9 00:35:43 18° SSW 00:35:56 18° SSW 00:38:18 10° SSE visible
25 Oct 4.1 23:39:46 12° SE 23:39:46 12° SE 23:40:06 10° SE visible
26 Oct 3.4 01:13:02 10° SW 01:14:47 14° S 01:16:32 10° SSE visible
27 Oct 3.3 00:16:05 15° S 00:16:06 15° S 00:18:04 10° SSE visible
27 Oct 3.4 01:51:31 10° SSW 01:53:39 16° S 01:55:46 10° SE visible
28 Oct 3.5 00:53:10 10° SSW 00:55:00 14° S 00:56:48 10° SE visible
28 Oct 3.6 23:56:33 13° S 23:56:33 13° S 23:58:03 10° SSE visible
29 Oct 3.1 01:31:15 10° SW 01:33:47 20° SSE 01:36:19 10° ESE visible
30 Oct 3.5 00:33:03 10° SSW 00:35:10 16° S 00:37:18 10° SE visible
30 Oct 3.9 23:37:20 13° SSE 23:37:20 13° SSE 23:38:19 10° SE visible
